Lexington Weather

Lexington, Massachusetts, USA

33°F
12/8/2019 4:07pm 
  • Lexington Conditions: Mostly cloudy
  • Temperature: 32.5°F / 0.3°CColder 1.1°F than last hour.
  • Dew Point: 16.9°FIncreased 1.3°Fsince last hour.
  • Relative Humidity: 52%Increased 5.0% since last hour.
  • Wind: Wind from SW SW 2 mph, 10-min avg: 3 mph, gust: 7 mph
  • Barometer: 30.40 in Steady
  • Visibility: 10 miles
  • Snow Today: 0.0 in
  •   

Regional Weather Roundup
for Boston / Norton, MA

        
000
ASUS41 KBOX 061200
RWRBOX

REGIONAL WEATHER ROUNDUP
NATIONAL WEATHER SERVICE BOSTON/NORTON MA
700 AM EST FRI DEC 06 2019

NOTE:  "FAIR" INDICATES FEW OR NO CLOUDS BELOW 12,000 FEET WITH NO 
SIGNIFICANT WEATHER AND/OR OBSTRUCTIONS TO VISIBILITY.

MAZALL-061300-
EASTERN MASSACHUSETTS
  
CITY           SKY/WX    TMP DP  RH WIND       PRES   REMARKS
BOSTON         FAIR      30  16  56 SW9       30.08R WCI  22          
6HR MIN TEMP:  29; 6HR MAX TEMP:  32;                                

BEVERLY        FAIR      23  13  65 SW3       30.06R                  
LAWRENCE       FAIR      22  14  71 S3        30.07S                  
BEDFORD        FAIR      17  12  80 CALM      30.06R                  
BLUE HILL        N/A     25  16  68 W10       30.03R WCI  15          
NORWOOD        FAIR      29  16  58 S3        30.08R                  
MARSHFIELD     NOT AVBL                                               
PLYMOUTH       FAIR      26  17  68 SW6       30.09R WCI  19          
TAUNTON        FAIR      29  17  61 SW3       30.09R                  
NEW BEDFORD    FAIR      29  19  66 W6        30.10R WCI  23          
$$

MAZALL-061300-
CAPE COD AND THE ISLANDS
  
CITY           SKY/WX    TMP DP  RH WIND       PRES   REMARKS
FALMOUTH       CLEAR     30  18  59 NW14      30.09R WCI  20          
HYANNIS        NOT AVBL                                               
CHATHAM        FAIR      30  18  60 CALM      30.08S                  
PROVINCETOWN   FAIR      32  21  64 W23       30.07R WCI  19          
NANTUCKET      FAIR      33  21  61 W16       30.10R WCI  23          
MARTHAS VNYRD  FAIR      33  20  58 VRB6      30.10S WCI  28          
$$
 
MAZALL-061300-
CENTRAL AND WESTERN MASSACHUSETTS
  
CITY           SKY/WX    TMP DP  RH WIND       PRES   REMARKS
WORCESTER      FAIR      23  14  68 W7        30.02R WCI  15          
6HR MIN TEMP:  22; 6HR MAX TEMP:  25;                                

FITCHBURG      FAIR      11   8  88 CALM      30.05S                  
ORANGE         FAIR      20  12  71 S6        30.05S WCI  12          
SPRINGFIELD    MOCLDY    22  16  77 SW8       30.07R WCI  12          
WESTFIELD      FAIR      26  18  71 SW5       30.08R WCI  20          
NORTH ADAMS    CLOUDY    26  16  65 W3        30.04F                  
PITTSFIELD     CLOUDY    24  17  74 S3        30.00F                  
$$
 
RIZALL-061300-
RHODE ISLAND
  
CITY           SKY/WX    TMP DP  RH WIND       PRES   REMARKS
PROVIDENCE     MOCLDY    27  19  72 S7        30.11R WCI  19          
6HR MIN TEMP:  25; 6HR MAX TEMP:  31;                                

NEWPORT        FAIR      32  20  61 W8        30.11R WCI  25          
BLOCK ISLAND   FAIR      35  21  56 W12       30.13R WCI  27          
SMITHFIELD     FAIR      25  19  78 SW3       30.07R                  
WESTERLY       FAIR      33  19  56 W6        30.13R WCI  28          
$$
 
CTZALL-061300-
CONNECTICUT
  
CITY           SKY/WX    TMP DP  RH WIND       PRES   REMARKS
BRADLEY INTL   MOCLDY    29  18  63 SE5       30.09S WCI  24          
6HR MIN TEMP:  26; 6HR MAX TEMP:  32;                                

HARTFORD       FAIR      29  20  69 S6        30.11S WCI  23          
BRIDGEPORT     FAIR      36  21  54 W7        30.13R WCI  30          
DANBURY        MOCLDY    31  20  63 SW5       30.11R WCI  26          
GROTON         NOT AVBL                                               
NEW HAVEN      CLOUDY    37  21  52 SW5       30.13R                  
CHESTER        FAIR      30  19  64 SW5       30.10S WCI  25          
MERIDEN        FAIR      24  21  88 SE3       30.12R                  
WILLIMANTIC    FAIR      25  18  74 S3        30.11R                  
OXFORD         MOCLDY    28  20  71 CALM      30.09R                  
$$

MEZ002-015-021-024-NHZ003-005-008-011-012-014-VTZ005-008-061300-
NORTHERN NEW ENGLAND
  
CITY           SKY/WX    TMP DP  RH WIND       PRES   REMARKS
PORTLAND ME    FAIR      25  12  58 SW6       30.01R WCI  18          
6HR MIN TEMP:  23; 6HR MAX TEMP:  31;                                

BANGOR ME      FAIR      21  13  71 W5        29.94R WCI  15          
CONCORD NH     FAIR      23  13  65 W6        30.03S WCI  16          
MANCHESTER NH  FAIR      20  13  74 CALM      30.03S                  
NASHUA NH      FAIR      11  10  96 CALM      30.05F                  
PORTSMOUTH NH  PTCLDY    24  13  63 W8        30.03R WCI  15          
JAFFREY NH     FAIR      22  12  65 W6        30.00S WCI  14          
KEENE NH       MOCLDY    10   8  92 CALM      30.05S                  
BURLINGTON VT  CLOUDY    25  17  72 SE3       30.02S                  
MT. WASHINGTON BLWGSNOW   1   1 100 W53G59      N/A  VSB 1/16WCI -30  
$$

NYZ052-076-061300-
EASTERN NEW YORK
  
CITY           SKY/WX    TMP DP  RH WIND       PRES   REMARKS
ALBANY         CLOUDY    29  20  69 CALM      30.08S                  
6HR MIN TEMP:  28; 6HR MAX TEMP:  31;                                

NEW YORK CITY  CLOUDY    38  20  48 W10       30.14S WCI  31          
6HR MIN TEMP:  36; 6HR MAX TEMP:  38;                                

$$
 
ANZALL-061300-
MARINE OBSERVATIONS
  
STATION/POSITION TIME  TEMP    WIND        PRES    VSBY  WAVE
                       AIR SEA DIR/SP/G                  HT/PER
                 (UTC) (F)     (DEG/KT/KT) (MB)    (MI)  (FT/S)
BOSTON BUOY      1050   33 48  280/ 17/ 21 1017.1          2/ 4
BUZZARDS BAY     1100   34     290/ 19/ 21 1019.9R
NANTUCKET SOUND  1110   34                   N/A
MASS BAY-STELLWA 1104   32 46  310/ 19/ 23 1015.8R  1 7/8  3/ 4
ISLE OF SHOALS   1100   29     270/ 18/ 20 1016.6R
S OF BLOCK IS    1130      51                N/A           5/ 7
$$

......................KEY.........................
  SKY/WX - SKY CONDITION/PRESENT WEATHER
  TMP    - TEMPERATURE IN FAHRENHEIT
  DWPT   - DEWPOINT IN FAHRENHEIT
  RH     - RELATIVE HUMIDITY IN PERCENT
  WIND   - DIRECTION AND SPEED IN MPH
  PRES   - MEAN SEA LEVEL PRESSURE IN INCHES OF HG
  WCI    - WIND CHILL INDEX
  VSB    - VISIBILITY IN MILES
  HX     - HEAT INDEX
  TC     - TEMPERATURE IN CELSIUS
  VRB    - VARIABLE WIND DIRECTION
  N/A    - NOT AVAILABLE
  
      

Other recent Regional Weather Roundups

Sun Dec 8, 4:01pm

Sun Dec 8, 3:10pm

Sun Dec 8, 3:01pm

Sun Dec 8, 2:10pm

Sun Dec 8, 2:01pm

Sun Dec 8, 1:10pm

Sun Dec 8, 1:00pm

Sun Dec 8, 12:10pm

Sun Dec 8, 12:01pm

Sun Dec 8, 11:10am

Sun Dec 8, 11:00am

Sun Dec 8, 10:10am

Sun Dec 8, 10:01am

Sun Dec 8, 9:10am

Sun Dec 8, 9:00am

Sun Dec 8, 8:10am

Sun Dec 8, 8:00am

Sun Dec 8, 7:10am

Sun Dec 8, 7:00am

Sun Dec 8, 6:10am

Sun Dec 8, 6:00am

Sun Dec 8, 5:10am

Sun Dec 8, 5:00am

Sun Dec 8, 4:10am

Sun Dec 8, 4:00am

Sun Dec 8, 3:10am

Sun Dec 8, 3:00am

Sun Dec 8, 2:10am

Sun Dec 8, 2:00am

Sun Dec 8, 1:10am

Sun Dec 8, 1:00am

Sun Dec 8, 12:10am

Sun Dec 8, 12:01am

Sat Dec 7, 11:10pm

Sat Dec 7, 11:00pm

Sat Dec 7, 10:10pm

Sat Dec 7, 10:00pm

Sat Dec 7, 9:10pm

Sat Dec 7, 9:00pm

Sat Dec 7, 8:10pm

Sat Dec 7, 8:00pm

Sat Dec 7, 7:10pm

Sat Dec 7, 7:00pm

Sat Dec 7, 6:10pm

Sat Dec 7, 6:00pm

Sat Dec 7, 5:10pm

Sat Dec 7, 5:00pm

Sat Dec 7, 4:10pm

Sat Dec 7, 4:00pm

Sat Dec 7, 3:10pm

Sat Dec 7, 3:00pm

Sat Dec 7, 2:10pm

Sat Dec 7, 2:01pm

Sat Dec 7, 1:10pm

Sat Dec 7, 1:00pm

Sat Dec 7, 12:10pm

Sat Dec 7, 12:01pm

Sat Dec 7, 11:10am

Sat Dec 7, 11:00am

Sat Dec 7, 10:10am

Sat Dec 7, 10:01am

Sat Dec 7, 9:10am

Sat Dec 7, 9:00am

Sat Dec 7, 8:10am

Sat Dec 7, 8:00am

Sat Dec 7, 7:10am

Sat Dec 7, 7:00am

Sat Dec 7, 6:10am

Sat Dec 7, 6:00am

Sat Dec 7, 5:10am

Sat Dec 7, 5:00am

Sat Dec 7, 4:10am

Sat Dec 7, 4:00am

Sat Dec 7, 3:10am

Sat Dec 7, 3:00am

Sat Dec 7, 2:10am

Sat Dec 7, 2:01am

Sat Dec 7, 1:10am

Sat Dec 7, 1:00am

Sat Dec 7, 12:10am

Sat Dec 7, 12:01am

Fri Dec 6, 11:10pm

Fri Dec 6, 11:00pm

Fri Dec 6, 10:10pm

Fri Dec 6, 10:00pm

Fri Dec 6, 9:10pm

Fri Dec 6, 9:00pm

Fri Dec 6, 8:10pm

Fri Dec 6, 8:00pm

Fri Dec 6, 7:10pm

Fri Dec 6, 7:01pm

Fri Dec 6, 6:10pm

Fri Dec 6, 6:00pm

Fri Dec 6, 5:10pm

Fri Dec 6, 5:00pm

Fri Dec 6, 4:10pm

Fri Dec 6, 4:00pm

Fri Dec 6, 3:10pm

Fri Dec 6, 3:00pm

Fri Dec 6, 2:10pm

Fri Dec 6, 2:00pm

Fri Dec 6, 1:10pm

Fri Dec 6, 1:00pm

Fri Dec 6, 12:10pm

Fri Dec 6, 12:00pm

Fri Dec 6, 11:10am

Fri Dec 6, 11:00am

Fri Dec 6, 10:10am

Fri Dec 6, 10:00am

Fri Dec 6, 9:10am

Fri Dec 6, 9:00am

Fri Dec 6, 8:10am

Fri Dec 6, 8:00am

Fri Dec 6, 7:10am

Fri Dec 6, 6:10am

Fri Dec 6, 6:01am

Fri Dec 6, 5:10am

Fri Dec 6, 5:00am

Fri Dec 6, 4:10am

Fri Dec 6, 4:00am

Fri Dec 6, 3:10am

Fri Dec 6, 3:00am

Fri Dec 6, 2:10am

Fri Dec 6, 2:00am

Fri Dec 6, 1:10am

Fri Dec 6, 1:00am

Fri Dec 6, 12:10am

Fri Dec 6, 12:00am

Thu Dec 5, 11:10pm

Thu Dec 5, 11:00pm

Thu Dec 5, 10:10pm

Thu Dec 5, 10:01pm

Thu Dec 5, 9:10pm

Thu Dec 5, 9:01pm

Thu Dec 5, 8:10pm

Thu Dec 5, 8:00pm

Thu Dec 5, 7:10pm

Thu Dec 5, 7:00pm

Thu Dec 5, 6:10pm

Thu Dec 5, 6:00pm

Thu Dec 5, 5:10pm

Thu Dec 5, 5:00pm

Thu Dec 5, 4:10pm

Meta data:

ID: 6e6c4768-cfb7-465d-bb53-577aee80d59c
Link: https://api.weather.gov/products/6e6c4768-cfb7-465d-bb53-577aee80d59c